Date,Notre-Dame,Notre-Dame_-_ouest,Notre-Dame_-_est,Pont_Jacques_Cartier,Pont_Jacques_Cartier_CyclesIN,Pont_Jacques_Cartier_PietonsOUT,Pont_Jacques_Cartier_PietonsIN,Pont_Jacques_Cartier_CyclesOUT,Rachel_-_Papineau_2007,Rachel_-_Papineau_2007_IN,Rachel_-_Papineau_2007_OUT,Berri1,Berri1_North,Berri1_South,Rachel_-_Papineau,Rachel_-_Papineau_-_ouest,Rachel_-_Papineau_-_est,Maisonneuve_1,Mais1_IN,Mais1_OUT,Maisonneuve_2,Mais2_IN,Mais2_OUT,PierDup,PierDup_IN,PierDup_OUT,CSC_Cote_Sainte-Catherine,CSC_IN,CSC_OUT,Parc,Parc_IN,Parc_OUT,Brebeuf,Brebeuf_-_sud,Brebeuf_-_nord,Totem_Laurier,Totem_Laurier_IN,Totem_Laurier_OUT,Saint-Antoine,Rene-Levesque,Rene-Levesque_-_ouest,Rene-Levesque_-_est,Viger,Maisonneuve_3,Maisonneuve_3_est,Maisonneuve_3_ouest,Rachel_-_Hotel_de_Ville,Rachel_-_Hotel_de_Ville_-_ouest,Rachel_-_Hotel_de_Ville_-_est,Boyer,Boyer_-_sud,Boyer_-_nord,University,University_Cyclists_Sud,University_Cyclists_Nord,Saint-Urbain,Saint-Urbain_New_IN,Saint-Urbain_New_OUT,PB_Ontario_-_Nord,PB_Ontario_-_Nord_-_Vers_l_Est,PB_Ontario_-_Nord_-_Vers_l_Ouest,PB_Ontario_-_Sud,PB_Ontario_-_Sud_-_Vers_l_Ouest,PB_Ontario_-_Sud_-_Vers_l_Est,PB_DeCastelnau_-_Nord,PB_DeCastelnau_-_Nord_-_Vers_l_Est,PB_DeCastelnau_-_Nord_-_Vers_l_Ouest,PB_DeCastelnau_-_Sud,PB_DeCastelnau_-_Sud_-_Vers_l_Est,PB_DeCastelnau_-_Sud_-_Vers_l_Ouest,PB_Parc_Stanley,TU_Parc_Stanley,TU_Parc_Stanley_-_Vers_l_Est,TU_Parc_Stanley_-_Vers_l_Ouest,PB_Ontario_Sud_route,PB_Ontario_Sud_route_IN,PB_Ontario_Sud_route_OUT,Ave_Van_Horne_-_Wiseman_Sud_-_Pietons,Ave_Van_Horne_-_Wiseman_Est_-_Pietons_-_DIRECTION_NORD,Ave_Van_Horne_-_Wiseman_Est_-_Pietons_-_DIRECTION_SUD,Ave_Van_Horne_-_Wiseman_Nord_-_Pietons,Ave_Van_Horne_-_Wiseman_Ouest_-_Pietons_-_DIRECTION_NORD,Ave_Van_Horne_-_Wiseman_Ouest_-_Pietons_-_DIRECTION_SUD,Ave_Van_Horne_-_Stuart_Sud_-_Pietons,Ave_Van_Horne_-_Stuart_Est_-_Pietons_-_DIRECTION_NORD,Ave_Van_Horne_-_Stuart_Est_-_Pietons_-_DIRECTION_SUD,Ave_Van_Horne_-_Stuart_Nord_-_Pietons,Ave_Van_Horne_-_Stuart_Ouest_-_Pietons_-_DIRECTION_NORD,Ave_Van_Horne_-_Stuart_Ouest_-_Pietons_-_DIRECTION_SUD,PB_Ontario_-_Donnees_completes_reconstruites,Ontario_PIETON_Trottoir_-ouest,Ontario_PIETON_Trottoir_-est,Ontario_PIETON_Route_-ouest,Ontario_PIETON_Route_-est,Ave_Van_Horne_-_Velos_-_Direction_Est,Ave_Van_Horne_-_Velos_-_Direction_Est_IN,Ave_Van_Horne_-_Velos_-_Direction_Est_OUT,Ave_Van_Horne_-_Velos_-_Direction_Ouest,Ave_Van_Horne_-_Velos_-_Direction_Ouest_IN,Ave_Van_Horne_-_Velos_-_Direction_Ouest_OUT,St._Laurent_Tubes,St._Laurent_Tubes_IN,St._Laurent_Tubes_OUT,PB_Ontario_-_Sud_reconstruit,PB_Ontario_Sud_reconstruit_-_Vers_l_Ouest,PB_Ontario_Sud_reconstruit_-_Vers_l_Est,Biencourt_Rue_Pietonne_Pyro_Donnees_Brutes,Biencourt_Rue_Pietonne_Pyro_Pedestrians_Vers_Monk,Biencourt_Rue_Pietonne_Pyro_Pedestrians_Vers_Briand,Dijon_Rue_Pietonne,Dijon_Rue_Pietonne_Pedestrians_Vers_Favier,Dijon_Rue_Pietonne_Pedestrians_Vers_Hurteau,Demenage_Shamrock_Trottoir_Nord_Pyro,Shamrock_Trottoir_Nord_Pyro_Pedestrians_Vers_St-Dominique,Shamrock_Trottoir_Nord_Pyro_Pedestrians_Vers_Saint-Laurent,Notre-Dame-des-Victoires_Est,NDVE_Channel_1_IN,NDVE_Channel_2_OUT,Notre-Dame-des-Victoires_Ouest,NDVO_Channel_1_IN,NDVO_Channel_2_OUT,Shamrock_Trottoir_Sud_Pyro,Vers_Saint-Laurent,Vers_Marche_Jean-Talon,Shamrock_Trottoir_Nord_Pyro,Shamrock_Trottoir_Nord_Pyro_Vers_Saint-Laurent,Shamrock_Trottoir_Nord_Pyro_Vers_Marche_Jean-Talon,Cote-des-Neiges,Cote-des-Neiges__Vers_Frere-Andre,Cote-des-Neiges__Vers_Queen_Mary,Ontario_Pietons_Sud_ete_2016,Ontario_Pietons_Sud_ete_2016_Vers_l_Est,Ontario_Pietons_Sud_ete_2016_Vers_l_Ouest,Ontario_Pietons_Nord_ete_2016,Ontario_Pietons_Nord_ete_2016_Vers_l_Est,Ontario_Pietons_Nord_ete_2016_Vers_l_Ouest,Ontario_Pietons_Sentier_ete_2016,Ontario_Pietons_Sentier_Vers_l_Est,Ontario_Pietons_Sentier_Vers_l_Ouest,Mentana_et_Duluth,Mentana_et_DUluth_Cyclists,Mentana_et_DUluth_Cars,Saint_Andre_et_Rachel,Saint_Andre_et_Rachel_Cyclists,Saint_Andre_et_Rachel_Cars,Mentana_et_Rachel,Mentana_et_Rachel_Cyclists,Mentana_et_Rachel_Cars,Saint_Andre_et_Duluth,Saint_Andre_et_Duluth_Cyclists_Nord,Saint_Andre_et_Duluth_Cyclists_Sud,Laurier_Nord,Laurier_Nord_IN_Est,Laurier_Nord_OUT_Ouest,Laurier_Sud,Laurier_Sud_IN_Est,Laurier_Sud_OUT_Ouest,St-Denis-Bienville_Ouest,St-Denis-Bienville_Ouest_Pedestrians_Vers_le_Sud,St-Denis-Bienville_Ouest_Pedestrians_Vers_le_Nord,St-Denis-Bienville_Est,St-Denis-Bienville_Est_Pedestrians_Vers_le_Sud,St-Denis-Bienville_Est_Pedestrians_Vers_le_Nord,St-Denis-Boucher_Est,St-Denis-Boucher_Est_Pedestrians_Vers_le_Sud,St-Denis-Boucher_Est_Pedestrians_Vers_le_Nord,St-Denis-Roy_Ouest,St-Denis-Roy_Ouest_Pedestrians_Vers_le_Sud,St-Denis-Roy_Ouest_Pedestrians_Vers_le_Nord,St-Denis-Rachel_Est,St-Denis-Rachel_Est_Pedestrians_Vers_le_Sud,St-Denis-Rachel_Est_Pedestrians_Vers_le_Nord,St-Denis-Roy_Est,St-Denis-Roy_Est_Pedestrians_Vers_le_Sud,St-Denis-Roy_Est_Pedestrians_Vers_le_Nord,Logger,Logger_IN,Logger_OUT,Gouin_-_Lajeunesse,Gouin_-_Lajeunesse_Velos_vers_le_sud_A,Gouin_-_Lajeunesse_Velos_vers_le_nord_A,Gouin_-_Lajeunesse_Velos_vers_le_sud_B,Gouin_-_Lajeunesse_Velos_vers_le_nord_B,Mentana_et_Rachel_Phase_2_,Mentana_et_Rachel_Phase_2_Cyclists,Mentana_et_Rachel_Phase_2_Cars,Mentana_et_Duluth_Phase_2_,Mentana_et_Duluth_Phase_2_Cyclists,Mentana_et_Duluth_Phase_2_Cars,Saint_Andre_et_Rachel_Phase_2,Saint_Andre_et_Rachel_Phase_2_Cyclists,Saint_Andre_et_Rachel_Phase_2_Cars,Saint_Andre_et_Duluth_Phase_2_,Saint_Andre_et_Duluth_Phase_2_Cyclists,Saint_Andre_et_Duluth_Phase_2_Cars,Biencourt_Rue_Pietonne_Donnees_Reconstruites,Biencourt_Rue_Pietonne_Donnees_Reconstruites_IN,Biencourt_Rue_Pietonne_Donnees_Reconstruites_OUT,Boyer_2,B2_Channel_1_IN,B2_Channel_2_OUT,B2_Channel_3_IN,B2_Channel_4_OUT,Christophe-Colomb,Christophe-Colomb_Cyclists_Sud,Christophe-Colomb_Cyclists_Nord
2012-01-01,,,,27,5,7,15,0,,,,35,15,20,16,12,4,38,17,21,51,26,25,10,4,6,0,0,0,26,10,16,5,5,0,,,,,,,,,,,,,,,,,,,,,,,,,,,,,,,,,,,,,,,,,,,,,,,,,,,,,,,,,,,,,,,,,,,,,,,,,,,,,,,,,,,,,,,,,,,,,,,,,,,,,,,,,,,,,,,,,,,,,,,,,,,,,,,,,,,,,,,,,,,,,,,,,,,,,,,,,,,,,,,,,,,,,,,,,,,
2012-01-02,,,,21,2,6,11,2,,,,83,37,46,43,21,22,68,40,28,153,91,62,6,4,2,1,0,1,53,21,32,11,11,0,,,,,,,,,,,,,,,,,,,,,,,,,,,,,,,,,,,,,,,,,,,,,,,,,,,,,,,,,,,,,,,,,,,,,,,,,,,,,,,,,,,,,,,,,,,,,,,,,,,,,,,,,,,,,,,,,,,,,,,,,,,,,,,,,,,,,,,,,,,,,,,,,,,,,,,,,,,,,,,,,,,,,,,,,,,
2012-01-03,,,,15,2,2,8,3,,,,135,62,73,58,30,28,104,59,45,248,138,110,3,2,1,2,0,2,89,23,66,2,2,0,,,,,,,,,,,,,,,,,,,,,,,,,,,,,,,,,,,,,,,,,,,,,,,,,,,,,,,,,,,,,,,,,,,,,,,,,,,,,,,,,,,,,,,,,,,,,,,,,,,,,,,,,,,,,,,,,,,,,,,,,,,,,,,,,,,,,,,,,,,,,,,,,,,,,,,,,,,,,,,,,,,,,,,,,,,
2012-01-04,,,,19,3,8,6,2,,,,144,69,75,61,29,32,116,71,45,318,170,148,8,3,5,1,0,1,111,41,70,2,2,0,,,,,,,,,,,,,,,,,,,,,,,,,,,,,,,,,,,,,,,,,,,,,,,,,,,,,,,,,,,,,,,,,,,,,,,,,,,,,,,,,,,,,,,,,,,,,,,,,,,,,,,,,,,,,,,,,,,,,,,,,,,,,,,,,,,,,,,,,,,,,,,,,,,,,,,,,,,,,,,,,,,,,,,,,,,
2012-01-05,,,,16,3,8,3,2,,,,197,105,92,95,44,51,124,54,70,330,185,145,13,6,7,2,1,1,97,35,62,6,6,0,,,,,,,,,,,,,,,,,,,,,,,,,,,,,,,,,,,,,,,,,,,,,,,,,,,,,,,,,,,,,,,,,,,,,,,,,,,,,,,,,,,,,,,,,,,,,,,,,,,,,,,,,,,,,,,,,,,,,,,,,,,,,,,,,,,,,,,,,,,,,,,,,,,,,,,,,,,,,,,,,,,,,,,,,,,
2012-01-06,,,,17,3,3,7,4,,,,146,83,63,75,38,37,98,54,44,244,137,107,4,3,1,0,0,0,86,39,47,4,4,0,,,,,,,,,,,,,,,,,,,,,,,,,,,,,,,,,,,,,,,,,,,,,,,,,,,,,,,,,,,,,,,,,,,,,,,,,,,,,,,,,,,,,,,,,,,,,,,,,,,,,,,,,,,,,,,,,,,,,,,,,,,,,,,,,,,,,,,,,,,,,,,,,,,,,,,,,,,,,,,,,,,,,,,,,,,
2012-01-07,,,,9,0,3,5,1,,,,98,54,44,54,33,21,80,48,32,108,65,43,6,3,3,2,2,0,53,21,32,5,5,0,,,,,,,,,,,,,,,,,,,,,,,,,,,,,,,,,,,,,,,,,,,,,,,,,,,,,,,,,,,,,,,,,,,,,,,,,,,,,,,,,,,,,,,,,,,,,,,,,,,,,,,,,,,,,,,,,,,,,,,,,,,,,,,,,,,,,,,,,,,,,,,,,,,,,,,,,,,,,,,,,,,,,,,,,,,
2012-01-08,,,,23,6,7,8,2,,,,95,40,55,63,30,33,62,41,21,98,48,50,11,5,6,1,1,0,64,24,40,13,13,0,,,,,,,,,,,,,,,,,,,,,,,,,,,,,,,,,,,,,,,,,,,,,,,,,,,,,,,,,,,,,,,,,,,,,,,,,,,,,,,,,,,,,,,,,,,,,,,,,,,,,,,,,,,,,,,,,,,,,,,,,,,,,,,,,,,,,,,,,,,,,,,,,,,,,,,,,,,,,,,,,,,,,,,,,,,
2012-01-09,,,,23,3,9,6,5,,,,244,133,111,173,92,81,165,99,66,432,246,186,12,5,7,2,1,1,198,70,128,9,9,0,,,,,,,,,,,,,,,,,,,,,,,,,,,,,,,,,,,,,,,,,,,,,,,,,,,,,,,,,,,,,,,,,,,,,,,,,,,,,,,,,,,,,,,,,,,,,,,,,,,,,,,,,,,,,,,,,,,,,,,,,,,,,,,,,,,,,,,,,,,,,,,,,,,,,,,,,,,,,,,,,,,,,,,,,,,
2012-01-10,,,,46,11,12,15,8,,,,397,219,178,241,124,117,238,142,96,563,315,248,18,8,10,3,1,2,275,87,188,6,6,0,,,,,,,,,,,,,,,,,,,,,,,,,,,,,,,,,,,,,,,,,,,,,,,,,,,,,,,,,,,,,,,,,,,,,,,,,,,,,,,,,,,,,,,,,,,,,,,,,,,,,,,,,,,,,,,,,,,,,,,,,,,,,,,,,,,,,,,,,,,,,,,,,,,,,,,,,,,,,,,,,,,,,,,,,,,
2012-01-11,,,,20,6,5,7,2,,,,273,142,131,194,103,91,182,106,76,443,251,192,12,4,8,0,0,0,258,86,172,7,7,0,,,,,,,,,,,,,,,,,,,,,,,,,,,,,,,,,,,,,,,,,,,,,,,,,,,,,,,,,,,,,,,,,,,,,,,,,,,,,,,,,,,,,,,,,,,,,,,,,,,,,,,,,,,,,,,,,,,,,,,,,,,,,,,,,,,,,,,,,,,,,,,,,,,,,,,,,,,,,,,,,,,,,,,,,,,
2012-01-12,,,,15,5,3,4,3,,,,157,59,98,63,42,21,134,77,57,261,179,82,9,4,5,1,1,0,137,70,67,3,3,0,,,,,,,,,,,,,,,,,,,,,,,,,,,,,,,,,,,,,,,,,,,,,,,,,,,,,,,,,,,,,,,,,,,,,,,,,,,,,,,,,,,,,,,,,,,,,,,,,,,,,,,,,,,,,,,,,,,,,,,,,,,,,,,,,,,,,,,,,,,,,,,,,,,,,,,,,,,,,,,,,,,,,,,,,,,
2012-01-13,,,,1,0,0,1,0,,,,75,18,57,0,0,0,41,12,29,105,72,33,2,0,2,0,0,0,64,39,25,4,4,0,,,,,,,,,,,,,,,,,,,,,,,,,,,,,,,,,,,,,,,,,,,,,,,,,,,,,,,,,,,,,,,,,,,,,,,,,,,,,,,,,,,,,,,,,,,,,,,,,,,,,,,,,,,,,,,,,,,,,,,,,,,,,,,,,,,,,,,,,,,,,,,,,,,,,,,,,,,,,,,,,,,,,,,,,,,
2012-01-14,,,,3,2,0,1,0,,,,32,6,26,1,0,1,54,12,42,56,34,22,0,0,0,0,0,0,19,9,10,0,0,0,,,,,,,,,,,,,,,,,,,,,,,,,,,,,,,,,,,,,,,,,,,,,,,,,,,,,,,,,,,,,,,,,,,,,,,,,,,,,,,,,,,,,,,,,,,,,,,,,,,,,,,,,,,,,,,,,,,,,,,,,,,,,,,,,,,,,,,,,,,,,,,,,,,,,,,,,,,,,,,,,,,,,,,,,,,
2012-01-15,,,,2,2,0,0,0,,,,54,31,23,0,0,0,33,17,16,60,32,28,0,0,0,0,0,0,18,11,7,0,0,0,,,,,,,,,,,,,,,,,,,,,,,,,,,,,,,,,,,,,,,,,,,,,,,,,,,,,,,,,,,,,,,,,,,,,,,,,,,,,,,,,,,,,,,,,,,,,,,,,,,,,,,,,,,,,,,,,,,,,,,,,,,,,,,,,,,,,,,,,,,,,,,,,,,,,,,,,,,,,,,,,,,,,,,,,,,
2012-01-16,,,,1,0,0,1,0,,,,168,67,101,0,0,0,136,86,50,312,175,137,1,1,0,2,2,0,137,60,77,8,8,0,,,,,,,,,,,,,,,,,,,,,,,,,,,,,,,,,,,,,,,,,,,,,,,,,,,,,,,,,,,,,,,,,,,,,,,,,,,,,,,,,,,,,,,,,,,,,,,,,,,,,,,,,,,,,,,,,,,,,,,,,,,,,,,,,,,,,,,,,,,,,,,,,,,,,,,,,,,,,,,,,,,,,,,,,,,
2012-01-17,,,,1,0,0,1,0,,,,155,78,77,0,0,0,86,52,34,256,174,82,0,0,0,0,0,0,74,38,36,4,4,0,,,,,,,,,,,,,,,,,,,,,,,,,,,,,,,,,,,,,,,,,,,,,,,,,,,,,,,,,,,,,,,,,,,,,,,,,,,,,,,,,,,,,,,,,,,,,,,,,,,,,,,,,,,,,,,,,,,,,,,,,,,,,,,,,,,,,,,,,,,,,,,,,,,,,,,,,,,,,,,,,,,,,,,,,,,
2012-01-18,,,,20,2,3,14,1,,,,139,69,70,0,0,0,66,7,59,188,101,87,3,1,2,0,0,0,68,38,30,2,2,0,,,,,,,,,,,,,,,,,,,,,,,,,,,,,,,,,,,,,,,,,,,,,,,,,,,,,,,,,,,,,,,,,,,,,,,,,,,,,,,,,,,,,,,,,,,,,,,,,,,,,,,,,,,,,,,,,,,,,,,,,,,,,,,,,,,,,,,,,,,,,,,,,,,,,,,,,,,,,,,,,,,,,,,,,,,
2012-01-19,,,,5,0,2,3,0,,,,191,71,120,0,0,0,104,14,90,248,128,120,3,1,2,1,0,1,79,47,32,46,46,0,,,,,,,,,,,,,,,,,,,,,,,,,,,,,,,,,,,,,,,,,,,,,,,,,,,,,,,,,,,,,,,,,,,,,,,,,,,,,,,,,,,,,,,,,,,,,,,,,,,,,,,,,,,,,,,,,,,,,,,,,,,,,,,,,,,,,,,,,,,,,,,,,,,,,,,,,,,,,,,,,,,,,,,,,,,
2012-01-20,,,,13,1,3,9,0,,,,161,46,115,1,1,0,96,12,84,217,141,76,1,0,1,4,4,0,67,38,29,4,4,0,,,,,,,,,,,,,,,,,,,,,,,,,,,,,,,,,,,,,,,,,,,,,,,,,,,,,,,,,,,,,,,,,,,,,,,,,,,,,,,,,,,,,,,,,,,,,,,,,,,,,,,,,,,,,,,,,,,,,,,,,,,,,,,,,,,,,,,,,,,,,,,,,,,,,,,,,,,,,,,,,,,,,,,,,,,
2012-01-21,,,,5,0,2,3,0,,,,53,9,44,0,0,0,47,8,39,70,40,30,1,0,1,0,0,0,32,11,21,11,11,0,,,,,,,,,,,,,,,,,,,,,,,,,,,,,,,,,,,,,,,,,,,,,,,,,,,,,,,,,,,,,,,,,,,,,,,,,,,,,,,,,,,,,,,,,,,,,,,,,,,,,,,,,,,,,,,,,,,,,,,,,,,,,,,,,,,,,,,,,,,,,,,,,,,,,,,,,,,,,,,,,,,,,,,,,,,
2012-01-22,,,,29,1,12,15,1,,,,71,21,50,0,0,0,41,8,33,73,47,26,5,2,3,0,0,0,35,13,22,20,20,0,,,,,,,,,,,,,,,,,,,,,,,,,,,,,,,,,,,,,,,,,,,,,,,,,,,,,,,,,,,,,,,,,,,,,,,,,,,,,,,,,,,,,,,,,,,,,,,,,,,,,,,,,,,,,,,,,,,,,,,,,,,,,,,,,,,,,,,,,,,,,,,,,,,,,,,,,,,,,,,,,,,,,,,,,,,
2012-01-23,,,,37,0,4,33,0,,,,210,90,120,0,0,0,114,38,76,357,222,135,6,3,3,6,5,1,91,47,44,22,22,0,,,,,,,,,,,,,,,,,,,,,,,,,,,,,,,,,,,,,,,,,,,,,,,,,,,,,,,,,,,,,,,,,,,,,,,,,,,,,,,,,,,,,,,,,,,,,,,,,,,,,,,,,,,,,,,,,,,,,,,,,,,,,,,,,,,,,,,,,,,,,,,,,,,,,,,,,,,,,,,,,,,,,,,,,,,
2012-01-24,,,,20,3,6,10,1,,,,299,167,132,0,0,0,189,101,88,444,245,199,4,3,1,1,1,0,174,67,107,9,9,0,,,,,,,,,,,,,,,,,,,,,,,,,,,,,,,,,,,,,,,,,,,,,,,,,,,,,,,,,,,,,,,,,,,,,,,,,,,,,,,,,,,,,,,,,,,,,,,,,,,,,,,,,,,,,,,,,,,,,,,,,,,,,,,,,,,,,,,,,,,,,,,,,,,,,,,,,,,,,,,,,,,,,,,,,,,
2012-01-25,,,,28,7,9,10,2,,,,334,179,155,0,0,0,217,123,94,453,254,199,4,2,2,1,1,0,180,58,122,16,16,0,,,,,,,,,,,,,,,,,,,,,,,,,,,,,,,,,,,,,,,,,,,,,,,,,,,,,,,,,,,,,,,,,,,,,,,,,,,,,,,,,,,,,,,,,,,,,,,,,,,,,,,,,,,,,,,,,,,,,,,,,,,,,,,,,,,,,,,,,,,,,,,,,,,,,,,,,,,,,,,,,,,,,,,,,,,
2012-01-26,,,,21,0,7,11,3,,,,306,155,151,1,0,1,215,118,97,495,269,226,0,0,0,0,0,0,191,71,120,3,3,0,,,,,,,,,,,,,,,,,,,,,,,,,,,,,,,,,,,,,,,,,,,,,,,,,,,,,,,,,,,,,,,,,,,,,,,,,,,,,,,,,,,,,,,,,,,,,,,,,,,,,,,,,,,,,,,,,,,,,,,,,,,,,,,,,,,,,,,,,,,,,,,,,,,,,,,,,,,,,,,,,,,,,,,,,,,
2012-01-27,,,,186,4,0,180,2,,,,91,35,56,0,0,0,79,30,49,204,124,80,0,0,0,5,5,0,65,30,35,11,11,0,,,,,,,,,,,,,,,,,,,,,,,,,,,,,,,,,,,,,,,,,,,,,,,,,,,,,,,,,,,,,,,,,,,,,,,,,,,,,,,,,,,,,,,,,,,,,,,,,,,,,,,,,,,,,,,,,,,,,,,,,,,,,,,,,,,,,,,,,,,,,,,,,,,,,,,,,,,,,,,,,,,,,,,,,,,
2012-01-28,,,,34,4,13,15,2,,,,80,19,61,1,1,0,61,22,39,123,57,66,9,5,4,1,1,0,33,16,17,3,3,0,,,,,,,,,,,,,,,,,,,,,,,,,,,,,,,,,,,,,,,,,,,,,,,,,,,,,,,,,,,,,,,,,,,,,,,,,,,,,,,,,,,,,,,,,,,,,,,,,,,,,,,,,,,,,,,,,,,,,,,,,,,,,,,,,,,,,,,,,,,,,,,,,,,,,,,,,,,,,,,,,,,,,,,,,,,
2012-01-29,,,,20,1,8,9,2,,,,87,4,83,0,0,0,65,30,35,132,68,64,7,1,6,1,1,0,40,17,23,6,6,0,,,,,,,,,,,,,,,,,,,,,,,,,,,,,,,,,,,,,,,,,,,,,,,,,,,,,,,,,,,,,,,,,,,,,,,,,,,,,,,,,,,,,,,,,,,,,,,,,,,,,,,,,,,,,,,,,,,,,,,,,,,,,,,,,,,,,,,,,,,,,,,,,,,,,,,,,,,,,,,,,,,,,,,,,,,
2012-01-30,,,,38,4,20,13,1,,,,219,7,212,0,0,0,146,80,66,371,204,167,2,0,2,0,0,0,152,54,98,6,6,0,,,,,,,,,,,,,,,,,,,,,,,,,,,,,,,,,,,,,,,,,,,,,,,,,,,,,,,,,,,,,,,,,,,,,,,,,,,,,,,,,,,,,,,,,,,,,,,,,,,,,,,,,,,,,,,,,,,,,,,,,,,,,,,,,,,,,,,,,,,,,,,,,,,,,,,,,,,,,,,,,,,,,,,,,,,
2012-01-31,,,,4,1,1,2,0,,,,186,22,164,0,0,0,109,56,53,324,140,184,0,0,0,1,1,0,122,55,67,7,7,0,,,,,,,,,,,,,,,,,,,,,,,,,,,,,,,,,,,,,,,,,,,,,,,,,,,,,,,,,,,,,,,,,,,,,,,,,,,,,,,,,,,,,,,,,,,,,,,,,,,,,,,,,,,,,,,,,,,,,,,,,,,,,,,,,,,,,,,,,,,,,,,,,,,,,,,,,,,,,,,,,,,,,,,,,,,
2012-02-01,,,,4,0,2,2,0,,,,138,17,121,0,0,0,100,36,64,271,78,193,5,3,2,0,0,0,71,24,47,10,10,0,,,,,,,,,,,,,,,,,,,,,,,,,,,,,,,,,,,,,,,,,,,,,,,,,,,,,,,,,,,,,,,,,,,,,,,,,,,,,,,,,,,,,,,,,,,,,,,,,,,,,,,,,,,,,,,,,,,,,,,,,,,,,,,,,,,,,,,,,,,,,,,,,,,,,,,,,,,,,,,,,,,,,,,,,,,
2012-02-02,,,,4,1,1,1,1,,,,217,10,207,2,2,0,134,45,89,345,135,210,2,1,1,5,4,1,128,56,72,7,7,0,,,,,,,,,,,,,,,,,,,,,,,,,,,,,,,,,,,,,,,,,,,,,,,,,,,,,,,,,,,,,,,,,,,,,,,,,,,,,,,,,,,,,,,,,,,,,,,,,,,,,,,,,,,,,,,,,,,,,,,,,,,,,,,,,,,,,,,,,,,,,,,,,,,,,,,,,,,,,,,,,,,,,,,,,,,
2012-02-03,,,,8,1,3,3,1,,,,174,11,163,1,1,0,103,35,68,301,84,217,1,0,1,1,1,0,111,47,64,2,2,0,,,,,,,,,,,,,,,,,,,,,,,,,,,,,,,,,,,,,,,,,,,,,,,,,,,,,,,,,,,,,,,,,,,,,,,,,,,,,,,,,,,,,,,,,,,,,,,,,,,,,,,,,,,,,,,,,,,,,,,,,,,,,,,,,,,,,,,,,,,,,,,,,,,,,,,,,,,,,,,,,,,,,,,,,,,
2012-02-04,,,,59,2,26,30,1,,,,84,6,78,0,0,0,53,17,36,119,42,77,8,3,5,0,0,0,44,16,28,16,16,0,,,,,,,,,,,,,,,,,,,,,,,,,,,,,,,,,,,,,,,,,,,,,,,,,,,,,,,,,,,,,,,,,,,,,,,,,,,,,,,,,,,,,,,,,,,,,,,,,,,,,,,,,,,,,,,,,,,,,,,,,,,,,,,,,,,,,,,,,,,,,,,,,,,,,,,,,,,,,,,,,,,,,,,,,,,
2012-02-05,,,,58,0,27,29,2,,,,72,8,64,0,0,0,46,18,28,133,54,79,7,4,3,0,0,0,54,31,23,11,11,0,,,,,,,,,,,,,,,,,,,,,,,,,,,,,,,,,,,,,,,,,,,,,,,,,,,,,,,,,,,,,,,,,,,,,,,,,,,,,,,,,,,,,,,,,,,,,,,,,,,,,,,,,,,,,,,,,,,,,,,,,,,,,,,,,,,,,,,,,,,,,,,,,,,,,,,,,,,,,,,,,,,,,,,,,,,
2012-02-06,,,,19,2,9,7,1,,,,248,118,130,0,0,0,136,72,64,425,238,187,10,4,6,1,1,0,167,58,109,5,5,0,,,,,,,,,,,,,,,,,,,,,,,,,,,,,,,,,,,,,,,,,,,,,,,,,,,,,,,,,,,,,,,,,,,,,,,,,,,,,,,,,,,,,,,,,,,,,,,,,,,,,,,,,,,,,,,,,,,,,,,,,,,,,,,,,,,,,,,,,,,,,,,,,,,,,,,,,,,,,,,,,,,,,,,,,,,
2012-02-07,,,,22,0,10,11,1,,,,316,139,177,0,0,0,209,102,107,516,244,272,9,5,4,0,0,0,225,88,137,12,12,0,,,,,,,,,,,,,,,,,,,,,,,,,,,,,,,,,,,,,,,,,,,,,,,,,,,,,,,,,,,,,,,,,,,,,,,,,,,,,,,,,,,,,,,,,,,,,,,,,,,,,,,,,,,,,,,,,,,,,,,,,,,,,,,,,,,,,,,,,,,,,,,,,,,,,,,,,,,,,,,,,,,,,,,,,,,
2012-02-08,,,,27,3,9,12,3,,,,271,111,160,1,1,0,202,106,96,503,260,243,4,1,3,0,0,0,215,83,132,6,6,0,,,,,,,,,,,,,,,,,,,,,,,,,,,,,,,,,,,,,,,,,,,,,,,,,,,,,,,,,,,,,,,,,,,,,,,,,,,,,,,,,,,,,,,,,,,,,,,,,,,,,,,,,,,,,,,,,,,,,,,,,,,,,,,,,,,,,,,,,,,,,,,,,,,,,,,,,,,,,,,,,,,,,,,,,,,
2012-02-09,,,,24,3,9,11,1,,,,342,160,182,0,0,0,227,119,108,471,243,228,11,5,6,0,0,0,231,83,148,6,6,0,,,,,,,,,,,,,,,,,,,,,,,,,,,,,,,,,,,,,,,,,,,,,,,,,,,,,,,,,,,,,,,,,,,,,,,,,,,,,,,,,,,,,,,,,,,,,,,,,,,,,,,,,,,,,,,,,,,,,,,,,,,,,,,,,,,,,,,,,,,,,,,,,,,,,,,,,,,,,,,,,,,,,,,,,,,
2012-02-10,,,,10,0,1,9,0,,,,303,145,158,2,2,0,206,120,86,478,245,233,6,3,3,1,1,0,216,74,142,13,13,0,,,,,,,,,,,,,,,,,,,,,,,,,,,,,,,,,,,,,,,,,,,,,,,,,,,,,,,,,,,,,,,,,,,,,,,,,,,,,,,,,,,,,,,,,,,,,,,,,,,,,,,,,,,,,,,,,,,,,,,,,,,,,,,,,,,,,,,,,,,,,,,,,,,,,,,,,,,,,,,,,,,,,,,,,,,
2012-02-11,,,,22,3,6,11,2,,,,71,20,51,0,0,0,63,21,42,112,56,56,3,1,2,0,0,0,49,15,34,12,12,0,,,,,,,,,,,,,,,,,,,,,,,,,,,,,,,,,,,,,,,,,,,,,,,,,,,,,,,,,,,,,,,,,,,,,,,,,,,,,,,,,,,,,,,,,,,,,,,,,,,,,,,,,,,,,,,,,,,,,,,,,,,,,,,,,,,,,,,,,,,,,,,,,,,,,,,,,,,,,,,,,,,,,,,,,,,
2012-02-12,,,,7,0,3,4,0,,,,78,27,51,0,0,0,36,13,23,91,44,47,5,3,2,0,0,0,53,17,36,4,4,0,,,,,,,,,,,,,,,,,,,,,,,,,,,,,,,,,,,,,,,,,,,,,,,,,,,,,,,,,,,,,,,,,,,,,,,,,,,,,,,,,,,,,,,,,,,,,,,,,,,,,,,,,,,,,,,,,,,,,,,,,,,,,,,,,,,,,,,,,,,,,,,,,,,,,,,,,,,,,,,,,,,,,,,,,,,
2012-02-13,,,,3,1,2,0,0,,,,211,92,119,0,0,0,175,98,77,408,202,206,4,2,2,0,0,0,207,67,140,13,13,0,,,,,,,,,,,,,,,,,,,,,,,,,,,,,,,,,,,,,,,,,,,,,,,,,,,,,,,,,,,,,,,,,,,,,,,,,,,,,,,,,,,,,,,,,,,,,,,,,,,,,,,,,,,,,,,,,,,,,,,,,,,,,,,,,,,,,,,,,,,,,,,,,,,,,,,,,,,,,,,,,,,,,,,,,,,
2012-02-14,,,,11,0,6,5,0,,,,318,136,182,1,0,1,186,86,100,504,241,263,9,5,4,0,0,0,243,94,149,6,6,0,,,,,,,,,,,,,,,,,,,,,,,,,,,,,,,,,,,,,,,,,,,,,,,,,,,,,,,,,,,,,,,,,,,,,,,,,,,,,,,,,,,,,,,,,,,,,,,,,,,,,,,,,,,,,,,,,,,,,,,,,,,,,,,,,,,,,,,,,,,,,,,,,,,,,,,,,,,,,,,,,,,,,,,,,,,
2012-02-15,,,,26,4,14,7,1,,,,307,141,166,1,0,1,180,96,84,491,264,227,5,3,2,0,0,0,232,76,156,8,8,0,,,,,,,,,,,,,,,,,,,,,,,,,,,,,,,,,,,,,,,,,,,,,,,,,,,,,,,,,,,,,,,,,,,,,,,,,,,,,,,,,,,,,,,,,,,,,,,,,,,,,,,,,,,,,,,,,,,,,,,,,,,,,,,,,,,,,,,,,,,,,,,,,,,,,,,,,,,,,,,,,,,,,,,,,,,
2012-02-16,,,,16,1,7,5,3,,,,386,197,189,0,0,0,212,114,98,569,299,270,10,4,6,1,1,0,295,102,193,3,3,0,,,,,,,,,,,,,,,,,,,,,,,,,,,,,,,,,,,,,,,,,,,,,,,,,,,,,,,,,,,,,,,,,,,,,,,,,,,,,,,,,,,,,,,,,,,,,,,,,,,,,,,,,,,,,,,,,,,,,,,,,,,,,,,,,,,,,,,,,,,,,,,,,,,,,,,,,,,,,,,,,,,,,,,,,,,
2012-02-17,,,,6,1,2,3,0,,,,332,170,162,1,0,1,237,129,108,496,287,209,11,5,6,3,3,0,260,99,161,15,15,0,,,,,,,,,,,,,,,,,,,,,,,,,,,,,,,,,,,,,,,,,,,,,,,,,,,,,,,,,,,,,,,,,,,,,,,,,,,,,,,,,,,,,,,,,,,,,,,,,,,,,,,,,,,,,,,,,,,,,,,,,,,,,,,,,,,,,,,,,,,,,,,,,,,,,,,,,,,,,,,,,,,,,,,,,,,
2012-02-18,,,,68,3,23,39,3,,,,220,119,101,0,0,0,159,87,72,280,153,127,30,13,17,1,1,0,134,37,97,7,7,0,,,,,,,,,,,,,,,,,,,,,,,,,,,,,,,,,,,,,,,,,,,,,,,,,,,,,,,,,,,,,,,,,,,,,,,,,,,,,,,,,,,,,,,,,,,,,,,,,,,,,,,,,,,,,,,,,,,,,,,,,,,,,,,,,,,,,,,,,,,,,,,,,,,,,,,,,,,,,,,,,,,,,,,,,,,
2012-02-19,,,,38,5,12,15,6,,,,169,84,85,2,1,1,110,60,50,205,112,93,13,6,7,3,2,1,113,46,67,7,7,0,,,,,,,,,,,,,,,,,,,,,,,,,,,,,,,,,,,,,,,,,,,,,,,,,,,,,,,,,,,,,,,,,,,,,,,,,,,,,,,,,,,,,,,,,,,,,,,,,,,,,,,,,,,,,,,,,,,,,,,,,,,,,,,,,,,,,,,,,,,,,,,,,,,,,,,,,,,,,,,,,,,,,,,,,,,
2012-02-20,,,,30,4,16,5,5,,,,303,154,149,10,4,6,224,127,97,470,256,214,14,8,6,2,1,1,243,78,165,17,17,0,,,,,,,,,,,,,,,,,,,,,,,,,,,,,,,,,,,,,,,,,,,,,,,,,,,,,,,,,,,,,,,,,,,,,,,,,,,,,,,,,,,,,,,,,,,,,,,,,,,,,,,,,,,,,,,,,,,,,,,,,,,,,,,,,,,,,,,,,,,,,,,,,,,,,,,,,,,,,,,,,,,,,,,,,,,
2012-02-21,,,,10,2,3,4,1,,,,441,219,222,6,1,5,292,169,123,503,262,241,10,5,5,5,2,3,286,89,197,12,12,0,,,,,,,,,,,,,,,,,,,,,,,,,,,,,,,,,,,,,,,,,,,,,,,,,,,,,,,,,,,,,,,,,,,,,,,,,,,,,,,,,,,,,,,,,,,,,,,,,,,,,,,,,,,,,,,,,,,,,,,,,,,,,,,,,,,,,,,,,,,,,,,,,,,,,,,,,,,,,,,,,,,,,,,,,,,
2012-02-22,,,,29,3,9,15,2,,,,375,216,159,3,0,3,263,148,115,501,276,225,12,7,5,10,9,1,264,83,181,7,7,0,,,,,,,,,,,,,,,,,,,,,,,,,,,,,,,,,,,,,,,,,,,,,,,,,,,,,,,,,,,,,,,,,,,,,,,,,,,,,,,,,,,,,,,,,,,,,,,,,,,,,,,,,,,,,,,,,,,,,,,,,,,,,,,,,,,,,,,,,,,,,,,,,,,,,,,,,,,,,,,,,,,,,,,,,,,
2012-02-23,,,,21,3,6,10,2,,,,397,218,179,13,3,10,293,173,120,528,294,234,22,13,9,10,9,1,329,113,216,12,12,0,,,,,,,,,,,,,,,,,,,,,,,,,,,,,,,,,,,,,,,,,,,,,,,,,,,,,,,,,,,,,,,,,,,,,,,,,,,,,,,,,,,,,,,,,,,,,,,,,,,,,,,,,,,,,,,,,,,,,,,,,,,,,,,,,,,,,,,,,,,,,,,,,,,,,,,,,,,,,,,,,,,,,,,,,,,
2012-02-24,,,,25,8,2,9,6,,,,243,120,123,13,3,10,187,101,86,313,173,140,4,2,2,4,3,1,137,58,79,13,13,0,,,,,,,,,,,,,,,,,,,,,,,,,,,,,,,,,,,,,,,,,,,,,,,,,,,,,,,,,,,,,,,,,,,,,,,,,,,,,,,,,,,,,,,,,,,,,,,,,,,,,,,,,,,,,,,,,,,,,,,,,,,,,,,,,,,,,,,,,,,,,,,,,,,,,,,,,,,,,,,,,,,,,,,,,,,
2012-02-25,,,,2,1,0,1,0,,,,62,43,19,5,3,2,48,31,17,52,23,29,2,0,2,0,0,0,18,10,8,1,1,0,,,,,,,,,,,,,,,,,,,,,,,,,,,,,,,,,,,,,,,,,,,,,,,,,,,,,,,,,,,,,,,,,,,,,,,,,,,,,,,,,,,,,,,,,,,,,,,,,,,,,,,,,,,,,,,,,,,,,,,,,,,,,,,,,,,,,,,,,,,,,,,,,,,,,,,,,,,,,,,,,,,,,,,,,,,
2012-02-26,,,,14,0,5,9,0,,,,78,56,22,0,0,0,76,49,27,47,10,37,4,2,2,0,0,0,35,11,24,2,2,0,,,,,,,,,,,,,,,,,,,,,,,,,,,,,,,,,,,,,,,,,,,,,,,,,,,,,,,,,,,,,,,,,,,,,,,,,,,,,,,,,,,,,,,,,,,,,,,,,,,,,,,,,,,,,,,,,,,,,,,,,,,,,,,,,,,,,,,,,,,,,,,,,,,,,,,,,,,,,,,,,,,,,,,,,,,
2012-02-27,,,,8,1,4,3,0,,,,119,82,37,5,3,2,94,32,62,298,132,166,3,2,1,4,4,0,134,55,79,9,9,0,,,,,,,,,,,,,,,,,,,,,,,,,,,,,,,,,,,,,,,,,,,,,,,,,,,,,,,,,,,,,,,,,,,,,,,,,,,,,,,,,,,,,,,,,,,,,,,,,,,,,,,,,,,,,,,,,,,,,,,,,,,,,,,,,,,,,,,,,,,,,,,,,,,,,,,,,,,,,,,,,,,,,,,,,,,
2012-02-28,,,,12,0,6,5,1,,,,195,137,58,3,0,3,158,79,79,350,201,149,9,3,6,0,0,0,168,58,110,22,22,0,,,,,,,,,,,,,,,,,,,,,,,,,,,,,,,,,,,,,,,,,,,,,,,,,,,,,,,,,,,,,,,,,,,,,,,,,,,,,,,,,,,,,,,,,,,,,,,,,,,,,,,,,,,,,,,,,,,,,,,,,,,,,,,,,,,,,,,,,,,,,,,,,,,,,,,,,,,,,,,,,,,,,,,,,,,
2012-02-29,,,,11,3,4,3,1,,,,242,121,121,4,1,3,164,88,76,446,241,205,7,4,3,0,0,0,190,67,123,15,15,0,,,,,,,,,,,,,,,,,,,,,,,,,,,,,,,,,,,,,,,,,,,,,,,,,,,,,,,,,,,,,,,,,,,,,,,,,,,,,,,,,,,,,,,,,,,,,,,,,,,,,,,,,,,,,,,,,,,,,,,,,,,,,,,,,,,,,,,,,,,,,,,,,,,,,,,,,,,,,,,,,,,,,,,,,,,
2012-03-01,,,,14,2,6,5,1,,,,92,21,71,14,8,6,56,17,39,199,108,91,0,0,0,0,0,0,63,27,36,46,46,0,,,,,,,,,,,,,,,,,,,,,,,,,,,,,,,,,,,,,,,,,,,,,,,,,,,,,,,,,,,,,,,,,,,,,,,,,,,,,,,,,,,,,,,,,,,,,,,,,,,,,,,,,,,,,,,,,,,,,,,,,,,,,,,,,,,,,,,,,,,,,,,,,,,,,,,,,,,,,,,,,,,,,,,,,,,
2012-03-02,,,,2,0,0,2,0,,,,143,47,96,1,0,1,56,22,34,283,175,108,7,2,5,0,0,0,77,31,46,31,31,0,,,,,,,,,,,,,,,,,,,,,,,,,,,,,,,,,,,,,,,,,,,,,,,,,,,,,,,,,,,,,,,,,,,,,,,,,,,,,,,,,,,,,,,,,,,,,,,,,,,,,,,,,,,,,,,,,,,,,,,,,,,,,,,,,,,,,,,,,,,,,,,,,,,,,,,,,,,,,,,,,,,,,,,,,,,
2012-03-03,,,,12,1,1,10,0,,,,82,37,45,0,0,0,65,17,48,133,67,66,2,1,1,0,0,0,47,17,30,2,2,0,,,,,,,,,,,,,,,,,,,,,,,,,,,,,,,,,,,,,,,,,,,,,,,,,,,,,,,,,,,,,,,,,,,,,,,,,,,,,,,,,,,,,,,,,,,,,,,,,,,,,,,,,,,,,,,,,,,,,,,,,,,,,,,,,,,,,,,,,,,,,,,,,,,,,,,,,,,,,,,,,,,,,,,,,,,
2012-03-04,,,,6,0,3,3,0,,,,107,51,56,0,0,0,79,24,55,138,80,58,15,7,8,2,1,1,60,22,38,0,0,0,,,,,,,,,,,,,,,,,,,,,,,,,,,,,,,,,,,,,,,,,,,,,,,,,,,,,,,,,,,,,,,,,,,,,,,,,,,,,,,,,,,,,,,,,,,,,,,,,,,,,,,,,,,,,,,,,,,,,,,,,,,,,,,,,,,,,,,,,,,,,,,,,,,,,,,,,,,,,,,,,,,,,,,,,,,
2012-03-05,,,,6,0,1,4,1,,,,155,64,91,2,0,2,114,59,55,363,212,151,8,4,4,1,1,0,157,58,99,88,88,0,,,,,,,,,,,,,,,,,,,,,,,,,,,,,,,,,,,,,,,,,,,,,,,,,,,,,,,,,,,,,,,,,,,,,,,,,,,,,,,,,,,,,,,,,,,,,,,,,,,,,,,,,,,,,,,,,,,,,,,,,,,,,,,,,,,,,,,,,,,,,,,,,,,,,,,,,,,,,,,,,,,,,,,,,,,
2012-03-06,,,,11,0,4,7,0,,,,269,113,156,0,0,0,192,94,98,437,258,179,10,4,6,0,0,0,170,66,104,4,4,0,,,,,,,,,,,,,,,,,,,,,,,,,,,,,,,,,,,,,,,,,,,,,,,,,,,,,,,,,,,,,,,,,,,,,,,,,,,,,,,,,,,,,,,,,,,,,,,,,,,,,,,,,,,,,,,,,,,,,,,,,,,,,,,,,,,,,,,,,,,,,,,,,,,,,,,,,,,,,,,,,,,,,,,,,,,
2012-03-07,,,,35,6,13,12,4,,,,438,189,249,0,0,0,290,146,144,715,398,317,28,14,14,3,3,0,266,93,173,7,7,0,,,,,,,,,,,,,,,,,,,,,,,,,,,,,,,,,,,,,,,,,,,,,,,,,,,,,,,,,,,,,,,,,,,,,,,,,,,,,,,,,,,,,,,,,,,,,,,,,,,,,,,,,,,,,,,,,,,,,,,,,,,,,,,,,,,,,,,,,,,,,,,,,,,,,,,,,,,,,,,,,,,,,,,,,,,
2012-03-08,,,,34,2,2,30,0,,,,348,173,175,9,5,4,238,121,117,530,288,242,9,5,4,6,4,2,270,86,184,2,2,0,,,,,,,,,,,,,,,,,,,,,,,,,,,,,,,,,,,,,,,,,,,,,,,,,,,,,,,,,,,,,,,,,,,,,,,,,,,,,,,,,,,,,,,,,,,,,,,,,,,,,,,,,,,,,,,,,,,,,,,,,,,,,,,,,,,,,,,,,,,,,,,,,,,,,,,,,,,,,,,,,,,,,,,,,,,